[[[{"header":{"parameterUnit":"kt","parameterCategory":2,"dx":1,"dy":1,"la1":30.253999710083008,"la2":30.299108505249023,"lo1":-89.0895004272461,"lo2":-89.04439544677734,"nx":28,"ny":28,"refTime":"2022-10-28T21:00:00:Z","depth":0,"parameterNumber":1,"parameterNumberName":"U-component_of_WINDS"},"data":[7.9949,8.01,8.0091,8.026,8.0279,8.0393,8.043,8.0478,8.0513,8.0648,8.0723,8.0729,8.076,8.0848,8.093,8.0931,8.0967,8.1028,8.1019,8.0752,8.0714,8.0678,8.0642,8.1036,8.1036,8.1297,8.1299,8.1301,7.9756,7.9777,7.9863,7.994,8.0014,7.9949,8.0004,8.007,8.0174,8.0218,8.0291,8.0409,8.0501,8.0511,8.0597,8.0669,8.0643,8.0693,8.0688,8.0694,8.0408,8.037,8.0712,8.0712,8.0712,8.0712,8.0712,8.0712,7.9403,7.9494,7.9534,7.9627,7.9663,7.9714,7.9799,7.9803,7.9887,7.9975,7.9946,8.0063,8.0105,8.0203,8.0233,8.0325,8.0267,8.0319,8.0332,8.0346,8.0363,7.9992,8.0338,8.0337,8.0336,8.0336,8.0335,0,7.9141,7.9127,7.9208,7.9287,7.9353,7.9413,7.9466,7.9518,7.9482,7.9553,7.9655,7.9712,7.9824,7.9919,7.9997,8.0017,7.9957,7.9949,7.9985,8.0001,8.0007,8.0007,7.9543,7.9939,7.9935,7.9933,7.9931,7.993,7.8786,7.8893,7.8928,7.8987,7.9012,7.9108,7.9162,7.9121,7.9181,7.924,7.9323,7.9416,7.9489,7.9654,7.9656,7.9741,7.9712,7.9865,7.9724,7.9736,7.9716,7.9711,7.9722,7.9893,7.9898,7.9902,7.9905,0,7.8587,7.8568,7.873,7.8754,7.8763,7.8877,7.8898,7.8987,7.898,7.9102,7.9127,7.9117,7.9217,7.9195,7.9304,7.929,7.948,7.9449,7.9466,7.9459,7.9594,7.9583,8.0035,8.0092,7.9682,7.9685,7.9689,0,7.8277,7.8418,7.8381,7.8476,7.8632,7.8587,7.8743,7.8752,7.8785,7.8881,7.8807,7.8898,7.8854,7.8943,7.8921,7.9072,7.9092,7.909,7.9083,7.9098,7.9098,7.9129,7.9111,7.906,7.9058,7.9056,7.9054,0,7.7968,7.8113,7.8267,7.8297,7.8336,7.8409,7.8429,7.8466,7.8519,7.8584,7.8619,7.8698,7.8742,7.8806,7.8777,7.8683,7.896,7.8824,7.8958,7.8959,7.9021,7.9018,7.9423,7.9051,7.905,7.905,7.9049,0,7.7715,7.7781,7.8006,7.8036,7.8076,7.8177,7.8252,7.8332,7.8376,7.8369,7.8419,7.8367,7.8496,7.8363,7.854,7.8426,7.8474,7.8483,7.8492,7.8502,7.8355,7.8588,7.8976,7.9016,7.8512,7.8508,7.8504,0,7.7368,7.7589,7.755,7.7765,7.7864,7.7774,7.7885,7.7925,7.7924,7.8007,7.8005,7.8101,7.7997,7.8023,7.8114,7.8116,7.8265,7.8095,7.8218,7.8223,7.8211,7.8567,7.863,7.8893,7.8446,7.8452,7.8457,0,7.7097,7.7141,7.7182,7.7214,7.7259,7.7341,7.7468,7.7552,7.761,7.7663,7.7769,7.7902,7.783,7.7874,7.7839,7.7935,7.8163,7.7844,7.7844,7.7903,7.8414,7.8475,7.8519,7.8119,7.8126,7.8131,7.8411,0,7.6721,7.6827,7.6936,7.7008,7.7067,7.7199,7.7172,7.7237,7.7197,7.7192,7.7347,7.7373,7.7459,7.7501,7.7463,7.7689,7.7647,7.7568,7.7438,7.7671,7.7763,7.78,7.7304,7.7299,7.7296,7.7293,0,0,7.6395,7.6546,7.6499,7.662,7.6667,7.657,7.6714,7.6748,7.6819,7.6854,7.678,7.6972,7.6996,7.7187,7.7258,7.7292,7.733,7.7249,7.756,7.759,7.7617,7.7716,7.7755,7.7287,7.7286,7.7285,7.7284,0,7.6252,7.6277,7.6419,7.6452,7.6498,7.6485,7.6519,7.6548,7.6551,7.6701,7.662,7.6709,7.6862,7.6899,7.6938,7.7225,7.7159,7.7253,7.7418,7.7527,7.7561,7.7591,7.7695,7.7733,7.7276,7.7276,7.7276,0,7.5981,7.6001,7.6066,7.6166,7.6195,7.6298,7.6155,7.6269,7.6345,7.6232,7.6383,7.6394,7.644,7.6624,7.6705,7.664,7.7005,7.6884,7.6904,7.6913,7.7017,7.7058,7.7095,7.6611,7.6609,7.6607,0,0,7.5861,7.5958,7.5967,7.6133,7.6157,7.6139,7.619,7.6155,7.6197,7.6215,7.6227,7.6272,7.636,7.6419,7.6501,7.6706,7.6712,7.6803,7.6834,7.686,7.6883,7.6994,7.7035,7.6599,7.6598,7.6598,0,0,7.5803,7.5819,7.5771,7.596,7.6003,7.6023,7.6125,7.6067,7.6137,7.6118,7.6064,7.6074,7.6244,7.6258,7.615,7.6454,7.6325,7.635,7.6439,7.6478,7.6509,7.6502,7.6006,0,0,0,0,0,7.5642,7.5817,7.5773,7.58,7.5925,7.6047,7.6063,7.6022,7.5932,7.6015,7.6015,7.5939,7.6189,7.6092,7.612,7.6241,7.6491,7.651,7.6528,7.6691,7.6732,7.6767,0,0,0,0,0,0,7.5652,7.5686,7.5768,7.5795,7.5823,7.604,7.5879,7.5873,7.5922,7.5905,7.5942,7.594,7.5908,7.6074,7.6101,7.6216,7.5997,7.6499,7.6515,7.6529,7.6705,7.6738,7.6767,0,0,0,0,0,7.566,7.5687,7.5898,7.5792,7.5817,7.5804,7.5872,7.5865,7.5903,7.5903,7.5899,7.5867,7.5912,7.5931,7.609,7.6206,7.5979,7.5988,7.6509,7.6522,7.6533,7.6721,0,0,0,0,0,0,7.5666,7.5682,7.5902,7.5908,7.5723,7.5791,7.58,7.5859,7.5896,7.5895,7.5826,7.5812,7.5918,7.5931,7.5947,7.6204,7.5964,7.5974,7.598,7.6519,7.6529,7.6538,0,0,0,0,0,0,7.5667,7.5688,7.5905,7.5819,7.5815,7.5779,7.5788,7.5916,7.5898,7.5816,7.5806,7.5819,7.5895,7.5933,7.5944,7.6145,7.5952,7.5962,7.5968,7.5973,7.6527,7.6535,0,0,0,0,0,0,7.5675,7.5693,7.5817,7.5814,7.581,7.5872,7.5892,7.6022,7.5824,7.5816,7.5806,7.5797,7.5898,7.5909,7.5943,7.614,7.6144,7.5952,7.5959,7.5964,7.5967,0,0,0,0,0,0,0,7.5682,7.5573,7.5868,7.581,7.5806,7.5962,7.5963,7.5965,7.5823,7.5815,7.5808,7.5801,7.5897,7.5908,7.5918,7.6135,0,0,7.5951,7.5956,0,0,0,0,0,0,0,0,7.5565,7.5571,7.5868,7.5869,7.587,7.5962,7.5963,7.5964,7.5821,7.5815,7.5809,7.5803,7.59,7.5908,7.5917,0,0,0,0,0,0,0,0,0,0,0,0,0,0,0,7.5868,7.5869,0,7.5962,7.5963,7.5964,7.582,7.5815,7.581,7.5806,7.5902,7.5909,7.5916,0,0,0,0,0,0,0,0,0,0,0,0,0,0,0,0,0,0,0,0,0,0,0,0,0,0,0,0,0,0,0,0,0,0,0,0,0,0,0,0,0,0,0,0,0,0,0,0,0,0,0,0,0,0,0,0,0,0,0,0,0,0,0,0,0,0,0,0,0]}],[{"header":{"parameterUnit":"kt","parameterCategory":2,"dx":1,"dy":1,"la1":30.253999710083008,"la2":30.299108505249023,"lo1":-89.0895004272461,"lo2":-89.04439544677734,"nx":28,"ny":28,"refTime":"2022-10-28T21:00:00:Z","depth":0,"parameterNumber":2,"parameterNumberName":"V-component_of_WINDS"},"data":[-2.6008,-2.6019,-2.6014,-2.6025,-2.6021,-2.6028,-2.6028,-2.6029,-2.6027,-2.6035,-2.6038,-2.6034,-2.603,-2.6033,-2.6037,-2.6035,-2.6037,-2.6046,-2.6041,-2.6007,-2.6001,-2.5996,-2.5993,-2.6046,-2.6046,-2.6078,-2.6078,-2.6079,-2.5985,-2.5981,-2.5985,-2.5985,-2.5988,-2.5977,-2.5976,-2.5979,-2.5986,-2.5984,-2.5987,-2.5993,-2.5997,-2.599,-2.5993,-2.5999,-2.5993,-2.6,-2.5999,-2.5999,-2.5962,-2.5958,-2.6005,-2.6005,-2.6005,-2.6005,-2.6005,-2.6005,-2.5941,-2.5948,-2.5944,-2.5948,-2.5947,-2.5947,-2.5952,-2.5946,-2.595,-2.5952,-2.5944,-2.5951,-2.5948,-2.5948,-2.5947,-2.5952,-2.5943,-2.5949,-2.595,-2.5951,-2.5954,-2.5909,-2.5952,-2.5952,-2.5952,-2.5952,-2.5952,0,-2.5907,-2.5902,-2.5904,-2.5906,-2.5908,-2.5909,-2.5908,-2.5911,-2.5897,-2.5901,-2.5906,-2.5907,-2.5911,-2.5915,-2.5916,-2.5913,-2.59,-2.5898,-2.5902,-2.5906,-2.591,-2.5908,-2.5847,-2.5897,-2.5896,-2.5896,-2.5896,-2.5895,-2.5863,-2.5872,-2.5864,-2.5867,-2.5864,-2.5869,-2.5871,-2.5857,-2.586,-2.5857,-2.5864,-2.5868,-2.587,-2.5879,-2.5871,-2.5873,-2.5867,-2.5887,-2.5867,-2.5871,-2.5867,-2.5866,-2.5867,-2.589,-2.5891,-2.5891,-2.5892,0,-2.5838,-2.5827,-2.5839,-2.583,-2.5828,-2.5838,-2.5831,-2.5837,-2.583,-2.5838,-2.5839,-2.5828,-2.5832,-2.5821,-2.5824,-2.5818,-2.5836,-2.5829,-2.5837,-2.5835,-2.5851,-2.585,-2.5906,-2.5913,-2.5858,-2.5859,-2.5859,0,-2.5796,-2.5808,-2.5791,-2.5798,-2.5811,-2.5796,-2.581,-2.5804,-2.5801,-2.5807,-2.579,-2.5796,-2.5781,-2.5785,-2.5776,-2.5788,-2.5789,-2.5785,-2.5782,-2.5786,-2.5786,-2.5786,-2.5783,-2.5776,-2.5775,-2.5775,-2.5775,0,-2.5758,-2.5763,-2.5774,-2.5773,-2.5764,-2.577,-2.5767,-2.5762,-2.5764,-2.5764,-2.5765,-2.5766,-2.5767,-2.5768,-2.5756,-2.5744,-2.5771,-2.5751,-2.5767,-2.5767,-2.5772,-2.5772,-2.5826,-2.5775,-2.5775,-2.5774,-2.5774,0,-2.5721,-2.5721,-2.574,-2.5732,-2.5733,-2.5741,-2.5741,-2.5745,-2.5741,-2.5735,-2.5735,-2.5722,-2.5731,-2.5712,-2.5725,-2.5712,-2.5714,-2.571,-2.5711,-2.571,-2.5689,-2.572,-2.5774,-2.5778,-2.5712,-2.5711,-2.5711,0,-2.5681,-2.5696,-2.5683,-2.5701,-2.5706,-2.5686,-2.5695,-2.5691,-2.5685,-2.5688,-2.5681,-2.5685,-2.5668,-2.5667,-2.5675,-2.5667,-2.5685,-2.5665,-2.567,-2.5671,-2.5671,-2.572,-2.5731,-2.5763,-2.5704,-2.5705,-2.5705,0,-2.5648,-2.5636,-2.564,-2.5638,-2.5631,-2.5635,-2.5645,-2.5645,-2.5648,-2.5646,-2.5653,-2.5659,-2.5646,-2.5645,-2.5634,-2.5643,-2.5673,-2.5628,-2.5628,-2.5636,-2.5699,-2.5709,-2.5715,-2.5664,-2.5664,-2.5665,-2.57,0,-2.5595,-2.5601,-2.5611,-2.5607,-2.5608,-2.5618,-2.5604,-2.5607,-2.5596,-2.5588,-2.5599,-2.5592,-2.5592,-2.5595,-2.5584,-2.5608,-2.5602,-2.5588,-2.5568,-2.56,-2.5611,-2.5616,-2.5553,-2.5552,-2.5551,-2.5551,0,0,-2.5559,-2.5566,-2.5551,-2.5558,-2.5558,-2.5537,-2.5548,-2.5546,-2.5541,-2.5541,-2.553,-2.5536,-2.5531,-2.5545,-2.5554,-2.5554,-2.5557,-2.5546,-2.5585,-2.5589,-2.5592,-2.5604,-2.5609,-2.555,-2.555,-2.555,-2.5549,0,-2.5536,-2.5531,-2.5543,-2.5539,-2.5533,-2.5523,-2.5526,-2.5516,-2.5511,-2.5521,-2.5502,-2.5507,-2.5512,-2.5509,-2.5508,-2.5544,-2.5529,-2.5545,-2.557,-2.558,-2.5584,-2.5588,-2.5601,-2.5606,-2.5548,-2.5548,-2.5548,0,-2.5501,-2.5493,-2.5497,-2.5495,-2.549,-2.5496,-2.5471,-2.5478,-2.5481,-2.5456,-2.5466,-2.546,-2.5455,-2.547,-2.5476,-2.5466,-2.5505,-2.549,-2.5493,-2.5493,-2.5502,-2.5508,-2.5513,-2.5447,-2.5447,-2.5446,0,0,-2.5483,-2.5488,-2.5474,-2.5489,-2.5487,-2.5472,-2.5474,-2.5462,-2.5457,-2.5455,-2.5447,-2.5443,-2.5445,-2.5447,-2.5449,-2.5468,-2.5465,-2.5478,-2.5483,-2.5487,-2.5489,-2.5499,-2.5505,-2.5445,-2.5445,-2.5445,0,0,-2.5474,-2.5459,-2.5448,-2.5463,-2.5459,-2.5447,-2.5456,-2.5443,-2.5443,-2.544,-2.5421,-2.5419,-2.5433,-2.5427,-2.5414,-2.5441,-2.5421,-2.5424,-2.5444,-2.5449,-2.5454,-2.5455,-2.5387,0,0,0,0,0,-2.5442,-2.5461,-2.5451,-2.5452,-2.5448,-2.5452,-2.5452,-2.5436,-2.5422,-2.543,-2.5421,-2.5405,-2.5416,-2.5404,-2.5405,-2.5419,-2.5431,-2.5434,-2.5436,-2.5466,-2.5472,-2.5477,0,0,0,0,0,0,-2.5442,-2.5443,-2.5451,-2.5439,-2.5438,-2.5451,-2.5425,-2.5421,-2.5421,-2.5418,-2.5407,-2.5405,-2.5392,-2.5403,-2.5404,-2.5418,-2.5386,-2.5432,-2.5434,-2.5436,-2.5468,-2.5473,-2.5478,0,0,0,0,0,-2.5442,-2.5443,-2.5441,-2.5439,-2.5438,-2.5422,-2.5424,-2.542,-2.542,-2.5406,-2.5402,-2.5408,-2.5392,-2.5392,-2.5403,-2.5418,-2.5386,-2.5386,-2.5433,-2.5435,-2.5437,-2.5471,0,0,0,0,0,0,-2.5442,-2.544,-2.544,-2.5439,-2.543,-2.5421,-2.5419,-2.542,-2.5408,-2.5405,-2.5405,-2.5403,-2.5393,-2.5393,-2.5393,-2.5418,-2.5385,-2.5386,-2.5386,-2.5435,-2.5436,-2.5437,0,0,0,0,0,0,-2.5439,-2.5439,-2.544,-2.543,-2.5428,-2.542,-2.5418,-2.5425,-2.5408,-2.5408,-2.5406,-2.5405,-2.5394,-2.5393,-2.5393,-2.5405,-2.5385,-2.5385,-2.5385,-2.5386,-2.5436,-2.5437,0,0,0,0,0,0,-2.5439,-2.5439,-2.543,-2.5428,-2.5426,-2.5416,-2.5426,-2.5423,-2.5399,-2.5409,-2.5397,-2.5396,-2.5395,-2.5394,-2.5394,-2.5406,-2.5405,-2.5385,-2.5385,-2.5385,-2.5385,0,0,0,0,0,0,0,-2.5439,-2.5444,-2.5445,-2.5427,-2.5425,-2.5432,-2.5431,-2.5431,-2.5399,-2.5398,-2.5397,-2.5396,-2.5383,-2.5383,-2.5384,-2.5406,0,0,-2.5385,-2.5385,0,0,0,0,0,0,0,0,-2.5444,-2.5444,-2.5445,-2.5445,-2.5445,-2.5432,-2.5431,-2.5431,-2.5399,-2.5398,-2.5397,-2.5396,-2.5383,-2.5383,-2.5383,0,0,0,0,0,0,0,0,0,0,0,0,0,0,0,-2.5445,-2.5445,0,-2.5432,-2.5431,-2.5431,-2.5399,-2.5398,-2.5397,-2.5397,-2.5383,-2.5383,-2.5383,0,0,0,0,0,0,0,0,0,0,0,0,0,0,0,0,0,0,0,0,0,0,0,0,0,0,0,0,0,0,0,0,0,0,0,0,0,0,0,0,0,0,0,0,0,0,0,0,0,0,0,0,0,0,0,0,0,0,0,0,0,0,0,0,0,0,0,0,0]}]]]